Location: Unspecified
(0.0000°N, 0.0000°E)
Time: 04:21:32
(UTC+00:00)

Kosmos-2233 - Pass Details

Date: 29 February 2024
Orbit: 950 x 1007 km, 82.9° (Epoch: 24 April)

Event Time Altitude Azimuth Distance (km) Brightness Sun altitude
Rises 18:28:13 0° 172° (S) 3,630 8.5 -3.9°
Reaches altitude 10° 18:30:48 10° 167° (SSE) 2,687 7.8 -4.6°
Maximum altitude 18:36:42 49° 93° (E) 1,219 5.7 -6.0°
Drops below altitude 10° 18:42:39 10° 19° (NNE) 2,712 7.6 -7.5°
Sets 18:45:15 0° 14° (NNE) 3,665 8.3 -8.1°
